Location: Baili�vre
(50.0696°N, 4.2409°E)
Time: 15:29:42
(UTC+00:00)

IRIDIUM 106 - Pass Details

Date: 08 August 2020
Orbit: 776 x 779 km, 86.4° (Epoch: 24 September)

Event Time Altitude Azimuth Distance (km) Brightness Sun altitude
Rises 20:01:22 0° 178° (S) 3,250 7.2 -7.4°
Reaches altitude 10° 20:03:42 10° 177° (S) 2,327 6.4 -7.7°
Maximum altitude 20:08:54 78° 92° (E) 803 4.3 -8.4°
Drops below altitude 10° 20:14:09 10° 6° (N) 2,345 7.3 -9.1°
Sets 20:16:31 0° 6° (N) 3,277 8.1 -9.3°
